Time,TemperatureF,DewpointF,PressureIn,WindDirection,WindDirectionDegrees,WindSpeedMPH,WindSpeedGustMPH,Humidity,HourlyPrecipIn,Conditions,Clouds,dailyrainin,SoftwareType,DateUTC
2013-05-28 00:02:00,74.0,67.9,29.71,SSE,158,7.6,9.8,81,0.00,,,0.00,WUHU216HW,2013-05-28 05:02:00,
2013-05-28 00:07:00,73.8,67.7,29.71,ESE,113,7.2,9.8,81,0.00,,,0.00,WUHU216HW,2013-05-28 05:07:00,
2013-05-28 00:12:00,73.6,67.9,29.72,South,180,8.9,9.8,82,0.00,,,0.00,WUHU216HW,2013-05-28 05:12:00,
2013-05-28 00:17:00,73.4,67.7,29.71,SW,225,11.4,11.4,82,0.00,,,0.00,WUHU216HW,2013-05-28 05:17:00,
2013-05-28 00:22:00,73.4,67.7,29.71,SSW,203,7.6,11.9,82,0.00,,,0.00,WUHU216HW,2013-05-28 05:22:00,
2013-05-28 00:27:00,73.3,67.5,29.71,South,180,5.4,11.9,82,0.00,,,0.00,WUHU216HW,2013-05-28 05:27:00,
2013-05-28 00:32:00,73.1,67.6,29.71,SE,135,10.1,11.9,83,0.00,,,0.00,WUHU216HW,2013-05-28 05:32:00,
2013-05-28 00:37:00,73.1,67.6,29.71,SSE,158,7.8,11.9,83,0.00,,,0.00,WUHU216HW,2013-05-28 05:37:00,
2013-05-28 00:42:00,73.1,67.6,29.71,South,180,4.7,12.3,83,0.00,,,0.00,WUHU216HW,2013-05-28 05:42:00,
2013-05-28 00:47:00,72.9,67.4,29.71,South,180,5.6,12.3,83,0.00,,,0.00,WUHU216HW,2013-05-28 05:47:00,
2013-05-28 00:52:00,72.7,67.2,29.70,SSE,158,3.1,11.4,83,0.00,,,0.00,WUHU216HW,2013-05-28 05:52:00,
2013-05-28 00:57:00,72.7,67.2,29.71,South,180,6.7,11.4,83,0.00,,,0.00,WUHU216HW,2013-05-28 05:57:00,
2013-05-28 01:02:00,72.7,67.0,29.71,SSE,158,4.3,10.7,82,0.00,,,0.00,WUHU216HW,2013-05-28 06:02:00,
2013-05-28 01:07:00,72.5,66.8,29.71,SE,135,5.4,10.5,82,0.00,,,0.00,WUHU216HW,2013-05-28 06:07:00,
2013-05-28 01:12:00,72.5,66.8,29.71,South,180,4.0,9.8,82,0.00,,,0.00,WUHU216HW,2013-05-28 06:12:00,
2013-05-28 01:17:00,72.5,66.8,29.71,SSE,158,8.3,10.1,82,0.00,,,0.00,WUHU216HW,2013-05-28 06:17:00,
2013-05-28 01:22:00,72.5,66.8,29.70,SE,135,8.7,10.1,82,0.00,,,0.00,WUHU216HW,2013-05-28 06:22:00,
2013-05-28 01:27:00,72.4,66.6,29.70,SE,135,9.2,9.2,82,0.00,,,0.00,WUHU216HW,2013-05-28 06:27:00,
2013-05-28 01:32:00,72.4,66.9,29.70,South,180,9.8,9.8,83,0.00,,,0.00,WUHU216HW,2013-05-28 06:32:00,
2013-05-28 01:37:00,72.4,66.6,29.69,SSE,158,6.0,10.3,82,0.00,,,0.00,WUHU216HW,2013-05-28 06:37:00,
2013-05-28 01:42:00,72.4,66.6,29.69,SSE,158,9.2,11.9,82,0.00,,,0.00,WUHU216HW,2013-05-28 06:42:00,
2013-05-28 01:47:00,72.2,66.4,29.68,South,180,7.8,11.9,82,0.00,,,0.00,WUHU216HW,2013-05-28 06:47:00,
2013-05-28 01:52:00,72.2,66.4,29.68,SSE,158,4.5,10.7,82,0.00,,,0.00,WUHU216HW,2013-05-28 06:52:00,
2013-05-28 01:57:00,72.2,66.4,29.68,South,180,10.5,11.4,82,0.00,,,0.00,WUHU216HW,2013-05-28 06:57:00,
2013-05-28 02:02:00,72.2,66.4,29.68,SSE,158,4.7,11.6,82,0.00,,,0.00,WUHU216HW,2013-05-28 07:02:00,
2013-05-28 02:07:00,72.0,66.3,29.68,SSW,203,8.1,11.6,82,0.00,,,0.00,WUHU216HW,2013-05-28 07:07:00,
2013-05-28 02:12:00,72.0,66.3,29.68,South,180,5.6,9.8,82,0.00,,,0.00,WUHU216HW,2013-05-28 07:12:00,
2013-05-28 02:17:00,72.0,66.5,29.68,SE,135,4.7,8.5,83,0.00,,,0.00,WUHU216HW,2013-05-28 07:17:00,
2013-05-28 02:22:00,72.0,66.5,29.68,SSE,158,8.3,8.5,83,0.00,,,0.00,WUHU216HW,2013-05-28 07:22:00,
2013-05-28 02:27:00,71.8,66.3,29.68,SSE,158,4.7,9.8,83,0.00,,,0.00,WUHU216HW,2013-05-28 07:27:00,
2013-05-28 02:32:00,71.6,66.2,29.68,SW,225,8.5,9.8,83,0.00,,,0.00,WUHU216HW,2013-05-28 07:32:00,
2013-05-28 02:37:00,71.6,66.2,29.68,South,180,3.4,8.5,83,0.00,,,0.00,WUHU216HW,2013-05-28 07:37:00,
2013-05-28 02:42:00,71.6,66.2,29.67,South,180,6.7,12.8,83,0.00,,,0.00,WUHU216HW,2013-05-28 07:42:00,
2013-05-28 02:47:00,71.6,66.2,29.67,South,180,9.8,12.8,83,0.00,,,0.00,WUHU216HW,2013-05-28 07:47:00,
2013-05-28 02:52:00,71.6,66.2,29.67,South,180,6.9,10.3,83,0.00,,,0.00,WUHU216HW,2013-05-28 07:52:00,
2013-05-28 02:57:00,71.6,66.2,29.67,South,180,6.3,11.6,83,0.00,,,0.00,WUHU216HW,2013-05-28 07:57:00,
2013-05-28 03:02:00,71.5,66.0,29.67,SSW,203,3.8,11.6,83,0.00,,,0.00,WUHU216HW,2013-05-28 08:02:00,
2013-05-28 03:07:00,71.6,66.2,29.67,SSE,158,4.7,9.6,83,0.00,,,0.00,WUHU216HW,2013-05-28 08:07:00,
2013-05-28 03:12:00,71.6,66.2,29.66,South,180,8.3,10.7,83,0.00,,,0.00,WUHU216HW,2013-05-28 08:12:00,
2013-05-28 03:17:00,71.6,66.2,29.66,South,180,3.4,10.7,83,0.00,,,0.00,WUHU216HW,2013-05-28 08:17:00,
2013-05-28 03:22:00,71.6,66.5,29.67,SSE,158,5.8,9.2,84,0.00,,,0.00,WUHU216HW,2013-05-28 08:22:00,
2013-05-28 03:27:00,71.6,66.5,29.67,SSE,158,5.6,9.2,84,0.00,,,0.00,WUHU216HW,2013-05-28 08:27:00,
2013-05-28 03:32:00,71.6,66.2,29.67,SSE,158,8.5,9.2,83,0.00,,,0.00,WUHU216HW,2013-05-28 08:32:00,
2013-05-28 03:37:00,71.6,66.2,29.67,SSW,203,6.3,9.2,83,0.00,,,0.00,WUHU216HW,2013-05-28 08:37:00,
2013-05-28 03:42:00,71.6,66.2,29.66,ESE,113,3.8,6.5,83,0.00,,,0.00,WUHU216HW,2013-05-28 08:42:00,
2013-05-28 03:47:00,71.6,66.2,29.66,SSE,158,4.0,7.8,83,0.00,,,0.00,WUHU216HW,2013-05-28 08:47:00,
2013-05-28 03:52:00,71.6,66.5,29.66,SSW,203,4.0,11.0,84,0.00,,,0.00,WUHU216HW,2013-05-28 08:52:00,
2013-05-28 03:57:00,71.6,66.2,29.66,South,180,8.3,11.0,83,0.00,,,0.00,WUHU216HW,2013-05-28 08:57:00,
2013-05-28 04:02:00,71.6,66.5,29.66,SE,135,1.8,8.9,84,0.00,,,0.00,WUHU216HW,2013-05-28 09:02:00,
2013-05-28 04:07:00,71.6,66.5,29.66,South,180,4.7,9.6,84,0.00,,,0.00,WUHU216HW,2013-05-28 09:07:00,
2013-05-28 04:12:00,71.6,66.2,29.66,SSW,203,5.4,9.6,83,0.00,,,0.00,WUHU216HW,2013-05-28 09:12:00,
2013-05-28 04:17:00,71.6,66.2,29.66,South,180,5.4,7.6,83,0.00,,,0.00,WUHU216HW,2013-05-28 09:17:00,
2013-05-28 04:22:00,71.6,66.2,29.66,SSE,158,4.9,9.2,83,0.00,,,0.00,WUHU216HW,2013-05-28 09:22:00,
2013-05-28 04:27:00,71.6,66.2,29.66,SSE,158,9.4,9.4,83,0.00,,,0.00,WUHU216HW,2013-05-28 09:27:00,
2013-05-28 04:32:00,71.6,66.2,29.66,South,180,5.8,10.5,83,0.00,,,0.00,WUHU216HW,2013-05-28 09:32:00,
2013-05-28 04:37:00,71.6,66.2,29.66,South,180,6.7,10.5,83,0.00,,,0.00,WUHU216HW,2013-05-28 09:37:00,
2013-05-28 04:42:00,71.5,66.0,29.66,South,180,1.8,9.2,83,0.00,,,0.00,WUHU216HW,2013-05-28 09:42:00,
2013-05-28 04:47:00,71.5,66.0,29.66,South,180,4.3,9.2,83,0.00,,,0.00,WUHU216HW,2013-05-28 09:47:00,
2013-05-28 04:52:00,71.5,66.0,29.66,SE,135,3.8,9.8,83,0.00,,,0.00,WUHU216HW,2013-05-28 09:52:00,
2013-05-28 04:57:00,71.5,66.0,29.66,SE,135,5.8,9.8,83,0.00,,,0.00,WUHU216HW,2013-05-28 09:57:00,
2013-05-28 05:02:00,71.5,66.0,29.66,SE,135,6.9,9.2,83,0.00,,,0.00,WUHU216HW,2013-05-28 10:02:00,
2013-05-28 05:07:00,71.5,66.0,29.67,SSE,158,6.3,8.5,83,0.00,,,0.00,WUHU216HW,2013-05-28 10:07:00,
2013-05-28 05:12:00,71.5,66.0,29.67,WSW,248,4.5,8.5,83,0.00,,,0.00,WUHU216HW,2013-05-28 10:12:00,
2013-05-28 05:17:00,71.6,66.2,29.67,South,180,9.2,9.2,83,0.00,,,0.00,WUHU216HW,2013-05-28 10:17:00,
2013-05-28 05:22:00,71.6,66.2,29.67,SW,225,4.3,9.2,83,0.00,,,0.00,WUHU216HW,2013-05-28 10:22:00,
2013-05-28 05:27:00,71.5,66.0,29.67,SSE,158,4.0,7.4,83,0.00,,,0.00,WUHU216HW,2013-05-28 10:27:00,
2013-05-28 05:32:00,71.5,66.0,29.68,South,180,3.6,8.3,83,0.00,,,0.00,WUHU216HW,2013-05-28 10:32:00,
2013-05-28 05:37:00,71.3,65.8,29.67,South,180,3.8,8.3,83,0.00,,,0.00,WUHU216HW,2013-05-28 10:37:00,
2013-05-28 05:42:00,71.3,66.2,29.67,South,180,3.4,5.4,84,0.00,,,0.00,WUHU216HW,2013-05-28 10:42:00,
2013-05-28 05:47:00,71.3,66.2,29.67,WSW,248,2.0,8.3,84,0.00,,,0.00,WUHU216HW,2013-05-28 10:47:00,
2013-05-28 05:52:00,71.3,66.2,29.67,South,180,4.9,8.3,84,0.00,,,0.00,WUHU216HW,2013-05-28 10:52:00,
2013-05-28 05:57:00,71.1,66.0,29.67,SSE,158,6.9,6.9,84,0.00,,,0.00,WUHU216HW,2013-05-28 10:57:00,
2013-05-28 06:02:00,71.1,66.0,29.67,SW,225,4.0,6.9,84,0.00,,,0.00,WUHU216HW,2013-05-28 11:02:00,
2013-05-28 06:07:00,70.9,65.8,29.67,South,180,5.1,6.7,84,0.00,,,0.00,WUHU216HW,2013-05-28 11:07:00,
2013-05-28 06:12:00,70.9,65.8,29.67,South,180,8.5,8.5,84,0.00,,,0.00,WUHU216HW,2013-05-28 11:12:00,
2013-05-28 06:17:00,70.9,65.8,29.67,South,180,7.6,8.5,84,0.00,,,0.00,WUHU216HW,2013-05-28 11:17:00,
2013-05-28 06:22:00,70.9,65.8,29.67,ESE,113,3.1,7.6,84,0.00,,,0.00,WUHU216HW,2013-05-28 11:22:00,
2013-05-28 06:27:00,70.9,65.8,29.67,South,180,2.7,6.3,84,0.00,,,0.00,WUHU216HW,2013-05-28 11:27:00,
2013-05-28 06:32:00,70.9,65.8,29.67,SSE,158,3.6,6.3,84,0.00,,,0.00,WUHU216HW,2013-05-28 11:32:00,
2013-05-28 06:37:00,70.9,66.2,29.67,SSE,158,3.8,7.6,85,0.00,,,0.00,WUHU216HW,2013-05-28 11:37:00,
2013-05-28 06:42:00,70.9,65.8,29.67,SSE,158,2.0,7.6,84,0.00,,,0.00,WUHU216HW,2013-05-28 11:42:00,
2013-05-28 06:47:00,70.9,66.2,29.67,SW,225,4.0,4.7,85,0.00,,,0.00,WUHU216HW,2013-05-28 11:47:00,
2013-05-28 06:52:00,71.3,66.2,29.67,South,180,2.9,5.6,84,0.00,,,0.00,WUHU216HW,2013-05-28 11:52:00,
2013-05-28 06:57:00,71.1,66.0,29.67,South,180,3.1,6.7,84,0.00,,,0.00,WUHU216HW,2013-05-28 11:57:00,
2013-05-28 07:02:00,71.3,66.5,29.67,SE,135,4.7,7.2,85,0.00,,,0.00,WUHU216HW,2013-05-28 12:02:00,
2013-05-28 07:07:00,71.6,66.5,29.67,SSE,158,4.7,7.2,84,0.00,,,0.00,WUHU216HW,2013-05-28 12:07:00,
2013-05-28 07:12:00,71.6,66.5,29.67,SSE,158,3.4,6.7,84,0.00,,,0.00,WUHU216HW,2013-05-28 12:12:00,
2013-05-28 07:17:00,71.8,66.7,29.68,SSW,203,7.2,7.2,84,0.00,,,0.00,WUHU216HW,2013-05-28 12:17:00,
2013-05-28 07:22:00,72.0,66.9,29.68,SE,135,4.0,7.8,84,0.00,,,0.00,WUHU216HW,2013-05-28 12:22:00,
2013-05-28 07:27:00,72.2,67.1,29.68,South,180,6.5,7.8,84,0.00,,,0.00,WUHU216HW,2013-05-28 12:27:00,
2013-05-28 07:32:00,72.4,67.2,29.68,SSE,158,4.0,6.5,84,0.00,,,0.00,WUHU216HW,2013-05-28 12:32:00,
2013-05-28 07:37:00,72.5,67.1,29.68,SSE,158,9.2,9.2,83,0.00,,,0.00,WUHU216HW,2013-05-28 12:37:00,
2013-05-28 07:42:00,72.9,67.4,29.68,SW,225,6.0,9.2,83,0.00,,,0.00,WUHU216HW,2013-05-28 12:42:00,
2013-05-28 07:47:00,73.4,68.0,29.68,SSE,158,5.6,8.9,83,0.00,,,0.00,WUHU216HW,2013-05-28 12:47:00,
2013-05-28 07:52:00,73.8,68.1,29.68,South,180,13.0,13.0,82,0.00,,,0.00,WUHU216HW,2013-05-28 12:52:00,
2013-05-28 07:57:00,73.8,68.1,29.68,SE,135,4.7,13.0,82,0.00,,,0.00,WUHU216HW,2013-05-28 12:57:00,
2013-05-28 08:02:00,73.8,68.1,29.68,SSE,158,4.7,9.4,82,0.00,,,0.00,WUHU216HW,2013-05-28 13:02:00,
2013-05-28 08:07:00,73.8,68.1,29.68,SW,225,7.6,10.7,82,0.00,,,0.00,WUHU216HW,2013-05-28 13:07:00,
2013-05-28 08:12:00,74.2,68.4,29.68,SW,225,8.1,10.7,82,0.00,,,0.00,WUHU216HW,2013-05-28 13:12:00,
2013-05-28 08:17:00,74.5,68.4,29.68,SE,135,8.5,8.5,81,0.00,,,0.00,WUHU216HW,2013-05-28 13:17:00,
2013-05-28 08:22:00,74.9,68.4,29.69,SSE,158,9.4,9.4,80,0.00,,,0.00,WUHU216HW,2013-05-28 13:22:00,
2013-05-28 08:27:00,74.7,68.2,29.68,South,180,6.3,12.5,80,0.00,,,0.00,WUHU216HW,2013-05-28 13:27:00,
2013-05-28 08:32:00,74.9,68.4,29.68,South,180,4.7,12.5,80,0.00,,,0.00,WUHU216HW,2013-05-28 13:32:00,
2013-05-28 08:37:00,76.1,69.2,29.68,South,180,9.6,11.0,79,0.00,,,0.00,WUHU216HW,2013-05-28 13:37:00,
2013-05-28 08:42:00,77.2,69.0,29.69,SSW,203,8.5,11.0,76,0.00,,,0.00,WUHU216HW,2013-05-28 13:42:00,
2013-05-28 08:47:00,77.8,68.8,29.68,SW,225,6.7,8.5,74,0.00,,,0.00,WUHU216HW,2013-05-28 13:47:00,
2013-05-28 08:52:00,77.0,68.5,29.68,SSE,158,5.4,11.2,75,0.00,,,0.00,WUHU216HW,2013-05-28 13:52:00,
2013-05-28 08:57:00,77.4,68.9,29.68,SW,225,6.0,11.2,75,0.00,,,0.00,WUHU216HW,2013-05-28 13:57:00,
2013-05-28 09:02:00,78.7,69.7,29.68,South,180,5.4,9.8,74,0.00,,,0.00,WUHU216HW,2013-05-28 14:02:00,
2013-05-28 09:07:00,78.5,68.7,29.68,South,180,6.3,13.9,72,0.00,,,0.00,WUHU216HW,2013-05-28 14:07:00,
2013-05-28 09:12:00,77.8,68.1,29.68,South,180,6.3,13.9,72,0.00,,,0.00,WUHU216HW,2013-05-28 14:12:00,
2013-05-28 09:17:00,76.7,67.8,29.68,South,180,3.6,7.2,74,0.00,,,0.00,WUHU216HW,2013-05-28 14:17:00,
2013-05-28 09:22:00,76.5,67.6,29.68,SSE,158,9.2,9.2,74,0.00,,,0.00,WUHU216HW,2013-05-28 14:22:00,
2013-05-28 09:27:00,76.7,67.4,29.68,SW,225,2.5,9.2,73,0.00,,,0.00,WUHU216HW,2013-05-28 14:27:00,
2013-05-28 09:32:00,76.0,67.1,29.69,SSW,203,10.1,12.8,74,0.00,,,0.00,WUHU216HW,2013-05-28 14:32:00,
2013-05-28 09:37:00,76.0,67.5,29.69,SSE,158,5.4,12.8,75,0.00,,,0.00,WUHU216HW,2013-05-28 14:37:00,
2013-05-28 09:42:00,76.1,67.7,29.69,SSE,158,5.8,9.6,75,0.00,,,0.00,WUHU216HW,2013-05-28 14:42:00,
2013-05-28 09:47:00,77.8,68.1,29.69,ESE,113,5.4,9.6,72,0.00,,,0.00,WUHU216HW,2013-05-28 14:47:00,
2013-05-28 09:52:00,80.3,68.8,29.69,SW,225,3.8,8.5,68,0.00,,,0.00,WUHU216HW,2013-05-28 14:52:00,
2013-05-28 09:57:00,79.9,68.0,29.69,SSW,203,9.2,9.2,67,0.00,,,0.00,WUHU216HW,2013-05-28 14:57:00,
2013-05-28 10:02:00,78.8,68.2,29.69,SW,225,5.1,9.2,70,0.00,,,0.00,WUHU216HW,2013-05-28 15:02:00,
2013-05-28 10:07:00,78.7,68.0,29.69,SSE,158,10.1,10.1,70,0.00,,,0.00,WUHU216HW,2013-05-28 15:07:00,
2013-05-28 10:12:00,78.5,67.9,29.69,SSE,158,7.4,10.1,70,0.00,,,0.00,WUHU216HW,2013-05-28 15:12:00,
2013-05-28 10:17:00,78.8,68.2,29.68,WSW,248,6.5,11.4,70,0.00,,,0.00,WUHU216HW,2013-05-28 15:17:00,
2013-05-28 10:22:00,79.0,68.4,29.69,SSE,158,5.4,12.3,70,0.00,,,0.00,WUHU216HW,2013-05-28 15:22:00,
2013-05-28 10:27:00,78.7,68.0,29.69,South,180,4.3,12.3,70,0.00,,,0.00,WUHU216HW,2013-05-28 15:27:00,
2013-05-28 10:32:00,81.2,70.0,29.69,SW,225,4.7,9.2,69,0.00,,,0.00,WUHU216HW,2013-05-28 15:32:00,
2013-05-28 10:37:00,84.1,70.6,29.69,SW,225,7.8,11.0,64,0.00,,,0.00,WUHU216HW,2013-05-28 15:37:00,
2013-05-28 10:42:00,84.6,70.2,29.69,South,180,8.5,11.0,62,0.00,,,0.00,WUHU216HW,2013-05-28 15:42:00,
2013-05-28 10:47:00,83.9,69.5,29.69,SSE,158,6.9,9.2,62,0.00,,,0.00,WUHU216HW,2013-05-28 15:47:00,
2013-05-28 10:52:00,82.6,68.7,29.69,South,180,7.6,11.9,63,0.00,,,0.00,WUHU216HW,2013-05-28 15:52:00,
2013-05-28 10:57:00,82.6,68.7,29.69,SSE,158,4.7,11.9,63,0.00,,,0.00,WUHU216HW,2013-05-28 15:57:00,
2013-05-28 11:02:00,83.0,69.5,29.69,SE,135,4.3,11.2,64,0.00,,,0.00,WUHU216HW,2013-05-28 16:02:00,
2013-05-28 11:07:00,84.2,69.8,29.69,South,180,5.4,12.1,62,0.00,,,0.00,WUHU216HW,2013-05-28 16:07:00,
2013-05-28 11:12:00,84.8,69.8,29.69,South,180,7.6,12.1,61,0.00,,,0.00,WUHU216HW,2013-05-28 16:12:00,
2013-05-28 11:17:00,84.6,69.3,29.69,SSW,203,8.7,9.4,60,0.00,,,0.00,WUHU216HW,2013-05-28 16:17:00,
2013-05-28 11:22:00,84.4,69.1,29.69,South,180,7.6,9.4,60,0.00,,,0.00,WUHU216HW,2013-05-28 16:22:00,
2013-05-28 11:27:00,84.8,69.0,29.69,SSW,203,5.1,9.6,59,0.00,,,0.00,WUHU216HW,2013-05-28 16:27:00,
2013-05-28 11:32:00,83.9,68.0,29.69,SSW,203,5.4,9.6,59,0.00,,,0.00,WUHU216HW,2013-05-28 16:32:00,
2013-05-28 11:37:00,86.0,69.5,29.69,SSW,203,8.1,9.8,58,0.00,,,0.00,WUHU216HW,2013-05-28 16:37:00,
2013-05-28 11:42:00,86.0,68.5,29.69,SE,135,11.6,11.6,56,0.00,,,0.00,WUHU216HW,2013-05-28 16:42:00,
2013-05-28 11:47:00,85.1,68.7,29.69,South,180,2.0,11.6,58,0.00,,,0.00,WUHU216HW,2013-05-28 16:47:00,
2013-05-28 11:52:00,84.4,69.1,29.69,South,180,9.8,9.8,60,0.00,,,0.00,WUHU216HW,2013-05-28 16:52:00,
2013-05-28 11:57:00,86.2,68.7,29.69,SSW,203,5.8,9.8,56,0.00,,,0.00,WUHU216HW,2013-05-28 16:57:00,
2013-05-28 12:01:00,87.1,68.4,29.69,SSE,158,14.3,14.3,54,0.00,,,0.00,WUHU216HW,2013-05-28 17:01:00,
2013-05-28 12:07:00,85.9,68.3,29.69,SSE,158,4.9,14.3,56,0.00,,,0.00,WUHU216HW,2013-05-28 17:07:00,
2013-05-28 12:11:00,83.9,68.0,29.69,WSW,248,4.9,11.9,59,0.00,,,0.00,WUHU216HW,2013-05-28 17:11:00,
2013-05-28 12:17:00,84.8,69.4,29.69,SSE,158,4.7,11.0,60,0.00,,,0.00,WUHU216HW,2013-05-28 17:17:00,
2013-05-28 12:21:00,86.9,69.3,29.69,SSE,158,13.4,13.4,56,0.00,,,0.00,WUHU216HW,2013-05-28 17:21:00,
2013-05-28 12:26:00,88.2,69.5,29.69,SSE,158,4.9,13.4,54,0.00,,,0.00,WUHU216HW,2013-05-28 17:26:00,
2013-05-28 12:31:00,86.0,68.0,29.69,SSE,158,9.2,9.2,55,0.00,,,0.00,WUHU216HW,2013-05-28 17:31:00,
2013-05-28 12:36:00,83.9,68.6,29.69,SE,135,6.9,12.5,60,0.00,,,0.00,WUHU216HW,2013-05-28 17:36:00,
2013-05-28 12:41:00,85.7,69.8,29.68,South,180,4.3,12.5,59,0.00,,,0.00,WUHU216HW,2013-05-28 17:41:00,
2013-05-28 12:46:00,87.1,69.5,29.69,East,90,7.4,12.5,56,0.00,,,0.00,WUHU216HW,2013-05-28 17:46:00,
2013-05-28 12:51:00,88.6,69.8,29.68,South,180,12.1,12.5,54,0.00,,,0.00,WUHU216HW,2013-05-28 17:51:00,
2013-05-28 12:56:00,88.9,69.6,29.68,SSW,203,11.4,12.1,53,0.00,,,0.00,WUHU216HW,2013-05-28 17:56:00,
2013-05-28 13:01:00,88.7,69.9,29.68,South,180,7.6,11.4,54,0.00,,,0.00,WUHU216HW,2013-05-28 18:01:00,
2013-05-28 13:06:00,88.7,69.4,29.68,SSW,203,6.0,9.8,53,0.00,,,0.00,WUHU216HW,2013-05-28 18:06:00,
2013-05-28 13:11:00,89.1,69.8,29.67,South,180,3.1,9.8,53,0.00,,,0.00,WUHU216HW,2013-05-28 18:11:00,
2013-05-28 13:16:00,89.3,68.8,29.67,SSW,203,3.4,9.2,51,0.00,,,0.00,WUHU216HW,2013-05-28 18:16:00,
2013-05-28 13:21:00,89.5,68.9,29.67,SSE,158,6.9,10.1,51,0.00,,,0.00,WUHU216HW,2013-05-28 18:21:00,
2013-05-28 13:26:00,89.1,69.2,29.66,ESE,113,5.4,10.1,52,0.00,,,0.00,WUHU216HW,2013-05-28 18:26:00,
2013-05-28 13:31:00,87.8,69.1,29.66,South,180,5.1,9.2,54,0.00,,,0.00,WUHU216HW,2013-05-28 18:31:00,
2013-05-28 13:36:00,86.6,68.5,29.66,SSE,158,6.7,9.2,55,0.00,,,0.00,WUHU216HW,2013-05-28 18:36:00,
2013-05-28 13:41:00,86.9,69.3,29.66,SSE,158,6.3,8.5,56,0.00,,,0.00,WUHU216HW,2013-05-28 18:41:00,
2013-05-28 13:46:00,87.5,69.3,29.66,South,180,8.5,8.5,55,0.00,,,0.00,WUHU216HW,2013-05-28 18:46:00,
2013-05-28 13:51:00,88.7,69.4,29.66,SSE,158,10.3,10.3,53,0.00,,,0.00,WUHU216HW,2013-05-28 18:51:00,
2013-05-28 13:56:00,88.6,69.8,29.65,ESE,113,4.9,10.3,54,0.00,,,0.00,WUHU216HW,2013-05-28 18:56:00,
2013-05-28 14:01:00,88.6,69.2,29.65,South,180,3.8,8.5,53,0.00,,,0.00,WUHU216HW,2013-05-28 19:01:00,
2013-05-28 14:06:00,88.6,70.3,29.64,ENE,68,5.6,10.7,55,0.00,,,0.00,WUHU216HW,2013-05-28 19:06:00,
2013-05-28 14:11:00,88.2,70.0,29.65,SSE,158,4.9,10.7,55,0.00,,,0.00,WUHU216HW,2013-05-28 19:11:00,
2013-05-28 14:16:00,88.6,69.2,29.64,SE,135,8.1,8.3,53,0.00,,,0.00,WUHU216HW,2013-05-28 19:16:00,
2013-05-28 14:21:00,87.5,68.8,29.64,SSW,203,6.9,8.3,54,0.00,,,0.00,WUHU216HW,2013-05-28 19:21:00,
2013-05-28 14:26:00,88.0,69.3,29.64,ESE,113,6.3,8.9,54,0.00,,,0.00,WUHU216HW,2013-05-28 19:26:00,
2013-05-28 14:31:00,88.6,69.2,29.64,South,180,9.8,9.8,53,0.00,,,0.00,WUHU216HW,2013-05-28 19:31:00,
2013-05-28 14:36:00,87.8,69.7,29.64,South,180,6.3,12.5,55,0.00,,,0.00,WUHU216HW,2013-05-28 19:36:00,
2013-05-28 14:41:00,87.8,69.7,29.64,South,180,11.4,12.5,55,0.00,,,0.00,WUHU216HW,2013-05-28 19:41:00,
2013-05-28 14:46:00,87.7,68.9,29.64,SSE,158,11.4,11.4,54,0.00,,,0.00,WUHU216HW,2013-05-28 19:46:00,
2013-05-28 14:51:00,87.3,68.6,29.64,SSE,158,4.0,11.4,54,0.00,,,0.00,WUHU216HW,2013-05-28 19:51:00,
2013-05-28 14:56:00,86.9,69.3,29.63,SSW,203,6.9,8.9,56,0.00,,,0.00,WUHU216HW,2013-05-28 19:56:00,
2013-05-28 15:01:00,86.9,68.8,29.64,ESE,113,6.9,9.4,55,0.00,,,0.00,WUHU216HW,2013-05-28 20:01:00,
2013-05-28 15:06:00,87.1,68.9,29.63,WSW,248,8.5,14.5,55,0.00,,,0.00,WUHU216HW,2013-05-28 20:06:00,
2013-05-28 15:11:00,86.9,68.8,29.63,ESE,113,6.9,14.5,55,0.00,,,0.00,WUHU216HW,2013-05-28 20:11:00,
2013-05-28 15:16:00,86.8,68.7,29.63,SE,135,4.0,13.9,55,0.00,,,0.00,WUHU216HW,2013-05-28 20:16:00,
2013-05-28 15:21:00,86.9,68.8,29.63,East,90,10.3,13.9,55,0.00,,,0.00,WUHU216HW,2013-05-28 20:21:00,
2013-05-28 15:26:00,87.3,68.6,29.63,South,180,13.2,13.2,54,0.00,,,0.00,WUHU216HW,2013-05-28 20:26:00,
2013-05-28 15:31:00,87.5,69.3,29.63,SE,135,4.7,13.2,55,0.00,,,0.00,WUHU216HW,2013-05-28 20:31:00,
2013-05-28 15:36:00,87.5,68.8,29.63,South,180,8.9,8.9,54,0.00,,,0.00,WUHU216HW,2013-05-28 20:36:00,
2013-05-28 15:41:00,86.8,69.1,29.63,South,180,6.7,9.4,56,0.00,,,0.00,WUHU216HW,2013-05-28 20:41:00,
2013-05-28 15:46:00,87.5,69.3,29.62,SE,135,6.5,9.4,55,0.00,,,0.00,WUHU216HW,2013-05-28 20:46:00,
2013-05-28 15:51:00,87.1,68.9,29.62,SSE,158,4.9,7.4,55,0.00,,,0.00,WUHU216HW,2013-05-28 20:51:00,
2013-05-28 15:56:00,87.3,69.1,29.62,South,180,9.8,9.8,55,0.00,,,0.00,WUHU216HW,2013-05-28 20:56:00,
2013-05-28 16:01:00,87.7,69.5,29.62,SSE,158,5.1,11.4,55,0.00,,,0.00,WUHU216HW,2013-05-28 21:01:00,
2013-05-28 16:06:00,87.3,68.6,29.62,SSW,203,9.8,11.4,54,0.00,,,0.00,WUHU216HW,2013-05-28 21:06:00,
2013-05-28 16:11:00,87.5,68.8,29.62,SSE,158,6.5,10.3,54,0.00,,,0.00,WUHU216HW,2013-05-28 21:11:00,
2013-05-28 16:16:00,87.5,68.8,29.62,ESE,113,4.9,11.9,54,0.00,,,0.00,WUHU216HW,2013-05-28 21:16:00,
2013-05-28 16:21:00,87.1,68.9,29.62,SSE,158,6.3,11.9,55,0.00,,,0.00,WUHU216HW,2013-05-28 21:21:00,
2013-05-28 16:26:00,86.9,68.8,29.62,SW,225,5.8,8.5,55,0.00,,,0.00,WUHU216HW,2013-05-28 21:26:00,
2013-05-28 16:31:00,86.8,68.1,29.61,WSW,248,10.1,12.8,54,0.00,,,0.00,WUHU216HW,2013-05-28 21:31:00,
2013-05-28 16:36:00,86.8,68.7,29.61,SE,135,7.6,12.8,55,0.00,,,0.00,WUHU216HW,2013-05-28 21:36:00,
2013-05-28 16:41:00,86.9,68.8,29.61,South,180,11.4,11.4,55,0.00,,,0.00,WUHU216HW,2013-05-28 21:41:00,
2013-05-28 16:46:00,86.4,68.3,29.61,SSE,158,6.5,11.6,55,0.00,,,0.00,WUHU216HW,2013-05-28 21:46:00,
2013-05-28 16:51:00,86.2,68.1,29.61,SSE,158,7.6,11.6,55,0.00,,,0.00,WUHU216HW,2013-05-28 21:51:00,
2013-05-28 16:56:00,86.4,67.8,29.61,SSE,158,7.6,11.6,54,0.00,,,0.00,WUHU216HW,2013-05-28 21:56:00,
2013-05-28 17:01:00,86.8,68.1,29.61,SSE,158,6.3,8.5,54,0.00,,,0.00,WUHU216HW,2013-05-28 22:01:00,
2013-05-28 17:06:00,86.4,67.8,29.61,SW,225,7.4,8.1,54,0.00,,,0.00,WUHU216HW,2013-05-28 22:06:00,
2013-05-28 17:11:00,86.6,68.0,29.60,SSE,158,7.6,8.7,54,0.00,,,0.00,WUHU216HW,2013-05-28 22:11:00,
2013-05-28 17:16:00,86.4,67.8,29.60,South,180,10.3,16.8,54,0.00,,,0.00,WUHU216HW,2013-05-28 22:16:00,
2013-05-28 17:21:00,86.2,68.1,29.60,South,180,8.3,16.8,55,0.00,,,0.00,WUHU216HW,2013-05-28 22:21:00,
2013-05-28 17:26:00,86.4,67.8,29.60,South,180,11.2,11.2,54,0.00,,,0.00,WUHU216HW,2013-05-28 22:26:00,
2013-05-28 17:31:00,86.0,68.0,29.60,SE,135,4.7,11.2,55,0.00,,,0.00,WUHU216HW,2013-05-28 22:31:00,
2013-05-28 17:36:00,86.6,69.0,29.60,South,180,5.4,9.2,56,0.00,,,0.00,WUHU216HW,2013-05-28 22:36:00,
2013-05-28 17:41:00,86.6,68.5,29.60,SE,135,6.0,9.8,55,0.00,,,0.00,WUHU216HW,2013-05-28 22:41:00,
2013-05-28 17:46:00,86.0,68.5,29.60,SSE,158,8.1,9.8,56,0.00,,,0.00,WUHU216HW,2013-05-28 22:46:00,
2013-05-28 17:51:00,85.7,68.7,29.60,SSE,158,13.4,13.4,57,0.00,,,0.00,WUHU216HW,2013-05-28 22:51:00,
2013-05-28 17:56:00,85.7,69.2,29.60,SSE,158,4.0,13.4,58,0.00,,,0.00,WUHU216HW,2013-05-28 22:56:00,
2013-05-28 18:01:00,85.9,68.9,29.60,South,180,7.4,10.5,57,0.00,,,0.00,WUHU216HW,2013-05-28 23:01:00,
2013-05-28 18:06:00,85.5,68.5,29.60,ESE,113,6.9,10.5,57,0.00,,,0.00,WUHU216HW,2013-05-28 23:06:00,
2013-05-28 18:11:00,85.0,68.1,29.60,SE,135,4.0,9.2,57,0.00,,,0.00,WUHU216HW,2013-05-28 23:11:00,
2013-05-28 18:16:00,85.0,68.6,29.59,SSE,158,6.5,8.9,58,0.00,,,0.00,WUHU216HW,2013-05-28 23:16:00,
2013-05-28 18:21:00,85.3,68.3,29.60,ESE,113,7.6,7.6,57,0.00,,,0.00,WUHU216HW,2013-05-28 23:21:00,
2013-05-28 18:26:00,85.5,68.0,29.59,SE,135,5.1,11.4,56,0.00,,,0.00,WUHU216HW,2013-05-28 23:26:00,
2013-05-28 18:31:00,85.3,68.3,29.59,SSW,203,7.4,11.4,57,0.00,,,0.00,WUHU216HW,2013-05-28 23:31:00,
2013-05-28 18:36:00,85.1,68.2,29.59,South,180,11.4,11.4,57,0.00,,,0.00,WUHU216HW,2013-05-28 23:36:00,
2013-05-28 18:41:00,85.0,68.1,29.59,SE,135,5.6,11.4,57,0.00,,,0.00,WUHU216HW,2013-05-28 23:41:00,
2013-05-28 18:46:00,84.8,67.9,29.59,South,180,11.4,11.4,57,0.00,,,0.00,WUHU216HW,2013-05-28 23:46:00,
2013-05-28 18:51:00,84.2,67.9,29.59,South,180,5.4,11.4,58,0.00,,,0.00,WUHU216HW,2013-05-28 23:51:00,
2013-05-28 18:56:00,83.9,68.0,29.59,ESE,113,9.2,13.2,59,0.00,,,0.00,WUHU216HW,2013-05-28 23:56:00,
2013-05-28 19:01:00,83.7,68.4,29.59,SE,135,5.4,13.2,60,0.00,,,0.00,WUHU216HW,2013-05-29 00:01:00,
2013-05-28 19:06:00,83.3,67.5,29.59,ESE,113,5.4,7.8,59,0.00,,,0.00,WUHU216HW,2013-05-29 00:06:00,
2013-05-28 19:11:00,83.2,68.3,29.59,SE,135,6.5,10.5,61,0.00,,,0.00,WUHU216HW,2013-05-29 00:11:00,
2013-05-28 19:16:00,83.0,68.1,29.59,SE,135,4.3,10.5,61,0.00,,,0.00,WUHU216HW,2013-05-29 00:16:00,
2013-05-28 19:21:00,82.6,67.8,29.59,ESE,113,4.3,8.9,61,0.00,,,0.00,WUHU216HW,2013-05-29 00:21:00,
2013-05-28 19:26:00,82.4,67.6,29.60,SSE,158,8.7,11.0,61,0.00,,,0.00,WUHU216HW,2013-05-29 00:26:00,
2013-05-28 19:31:00,82.1,67.2,29.59,SE,135,6.5,11.0,61,0.00,,,0.00,WUHU216HW,2013-05-29 00:31:00,
2013-05-28 19:36:00,82.1,67.7,29.60,South,180,7.2,10.5,62,0.00,,,0.00,WUHU216HW,2013-05-29 00:36:00,
2013-05-28 19:41:00,81.9,67.6,29.60,SE,135,4.3,10.5,62,0.00,,,0.00,WUHU216HW,2013-05-29 00:41:00,
2013-05-28 19:46:00,81.7,67.9,29.60,SSE,158,8.7,8.7,63,0.00,,,0.00,WUHU216HW,2013-05-29 00:46:00,
2013-05-28 19:51:00,81.5,68.1,29.60,South,180,4.9,8.7,64,0.00,,,0.00,WUHU216HW,2013-05-29 00:51:00,
2013-05-28 19:56:00,81.4,68.0,29.60,SE,135,10.7,10.7,64,0.00,,,0.00,WUHU216HW,2013-05-29 00:56:00,
2013-05-28 20:01:00,81.0,68.1,29.60,SE,135,5.4,10.7,65,0.00,,,0.00,WUHU216HW,2013-05-29 01:01:00,
2013-05-28 20:06:00,80.8,68.4,29.60,ENE,68,4.5,10.5,66,0.00,,,0.00,WUHU216HW,2013-05-29 01:06:00,
2013-05-28 20:11:00,80.5,68.0,29.60,SW,225,3.8,12.1,66,0.00,,,0.00,WUHU216HW,2013-05-29 01:11:00,
2013-05-28 20:16:00,80.3,68.3,29.60,SSE,158,4.0,12.5,67,0.00,,,0.00,WUHU216HW,2013-05-29 01:16:00,
2013-05-28 20:21:00,79.9,68.0,29.61,South,180,5.1,12.5,67,0.00,,,0.00,WUHU216HW,2013-05-29 01:21:00,
2013-05-28 20:26:00,79.6,68.0,29.61,SW,225,4.7,11.4,68,0.00,,,0.00,WUHU216HW,2013-05-29 01:26:00,
2013-05-28 20:31:00,79.6,68.0,29.62,SE,135,6.5,6.7,68,0.00,,,0.00,WUHU216HW,2013-05-29 01:31:00,
2013-05-28 20:36:00,79.4,67.9,29.62,South,180,8.9,8.9,68,0.00,,,0.00,WUHU216HW,2013-05-29 01:36:00,
2013-05-28 20:41:00,79.2,68.1,29.62,NNE,23,8.7,9.4,69,0.00,,,0.00,WUHU216HW,2013-05-29 01:41:00,
2013-05-28 20:46:00,79.0,68.0,29.61,SSE,158,7.2,9.4,69,0.00,,,0.00,WUHU216HW,2013-05-29 01:46:00,
2013-05-28 20:51:00,78.8,68.2,29.62,SSW,203,4.9,8.1,70,0.00,,,0.00,WUHU216HW,2013-05-29 01:51:00,
2013-05-28 20:56:00,78.7,68.5,29.62,SSW,203,9.8,9.8,71,0.00,,,0.00,WUHU216HW,2013-05-29 01:56:00,
2013-05-28 21:01:00,78.5,68.3,29.62,ESE,113,4.7,9.8,71,0.00,,,0.00,WUHU216HW,2013-05-29 02:01:00,
2013-05-28 21:06:00,78.3,68.1,29.62,SSE,158,10.3,11.6,71,0.00,,,0.00,WUHU216HW,2013-05-29 02:06:00,
2013-05-28 21:11:00,78.1,68.0,29.63,SE,135,8.1,14.3,71,0.00,,,0.00,WUHU216HW,2013-05-29 02:11:00,
2013-05-28 21:16:00,77.9,67.8,29.63,South,180,6.5,14.3,71,0.00,,,0.00,WUHU216HW,2013-05-29 02:16:00,
2013-05-28 21:21:00,77.8,67.6,29.63,South,180,14.5,14.5,71,0.00,,,0.00,WUHU216HW,2013-05-29 02:21:00,
2013-05-28 21:26:00,77.8,67.6,29.63,ESE,113,12.1,14.5,71,0.00,,,0.00,WUHU216HW,2013-05-29 02:26:00,
2013-05-28 21:31:00,77.6,67.5,29.64,SSW,203,5.4,12.1,71,0.00,,,0.00,WUHU216HW,2013-05-29 02:31:00,
2013-05-28 21:36:00,77.4,67.7,29.64,SSE,158,4.7,8.7,72,0.00,,,0.00,WUHU216HW,2013-05-29 02:36:00,
2013-05-28 21:41:00,77.2,67.5,29.63,South,180,11.2,11.2,72,0.00,,,0.00,WUHU216HW,2013-05-29 02:41:00,
2013-05-28 21:46:00,77.0,67.3,29.64,SE,135,5.8,11.2,72,0.00,,,0.00,WUHU216HW,2013-05-29 02:46:00,
2013-05-28 21:51:00,77.0,67.8,29.64,South,180,3.6,10.7,73,0.00,,,0.00,WUHU216HW,2013-05-29 02:51:00,
2013-05-28 21:56:00,77.0,67.8,29.65,SSE,158,7.6,10.5,73,0.00,,,0.00,WUHU216HW,2013-05-29 02:56:00,
2013-05-28 22:01:00,76.9,67.6,29.65,SSE,158,6.5,10.5,73,0.00,,,0.00,WUHU216HW,2013-05-29 03:01:00,
2013-05-28 22:06:00,76.7,67.4,29.65,SE,135,5.4,10.7,73,0.00,,,0.00,WUHU216HW,2013-05-29 03:06:00,
2013-05-28 22:11:00,76.7,67.8,29.66,SSW,203,10.3,10.7,74,0.00,,,0.00,WUHU216HW,2013-05-29 03:11:00,
2013-05-28 22:16:00,76.5,67.6,29.66,SSE,158,4.3,14.1,74,0.00,,,0.00,WUHU216HW,2013-05-29 03:16:00,
2013-05-28 22:21:00,76.3,67.4,29.66,ESE,113,3.4,14.1,74,0.00,,,0.00,WUHU216HW,2013-05-29 03:21:00,
2013-05-28 22:26:00,76.3,67.4,29.67,South,180,6.5,9.2,74,0.00,,,0.00,WUHU216HW,2013-05-29 03:26:00,
2013-05-28 22:31:00,76.3,67.4,29.67,South,180,4.7,9.2,74,0.00,,,0.00,WUHU216HW,2013-05-29 03:31:00,
2013-05-28 22:36:00,76.1,67.7,29.67,South,180,4.0,11.4,75,0.00,,,0.00,WUHU216HW,2013-05-29 03:36:00,
2013-05-28 22:41:00,76.1,67.7,29.67,South,180,7.4,11.4,75,0.00,,,0.00,WUHU216HW,2013-05-29 03:41:00,
2013-05-28 22:46:00,76.0,67.5,29.67,SSW,203,9.2,14.5,75,0.00,,,0.00,WUHU216HW,2013-05-29 03:46:00,
2013-05-28 22:51:00,76.0,67.5,29.68,SSW,203,5.8,16.6,75,0.00,,,0.00,WUHU216HW,2013-05-29 03:51:00,
2013-05-28 22:56:00,75.8,67.3,29.68,ESE,113,4.0,16.6,75,0.00,,,0.00,WUHU216HW,2013-05-29 03:56:00,
2013-05-28 23:01:00,75.6,67.2,29.68,SSE,158,4.7,6.5,75,0.00,,,0.00,WUHU216HW,2013-05-29 04:01:00,
2013-05-28 23:06:00,75.6,67.5,29.68,SSE,158,3.8,6.3,76,0.00,,,0.00,WUHU216HW,2013-05-29 04:06:00,
2013-05-28 23:11:00,75.4,67.3,29.68,South,180,4.0,6.3,76,0.00,,,0.00,WUHU216HW,2013-05-29 04:11:00,
2013-05-28 23:16:00,75.4,67.3,29.68,SE,135,1.6,4.0,76,0.00,,,0.00,WUHU216HW,2013-05-29 04:16:00,
2013-05-28 23:21:00,75.2,67.1,29.68,South,180,5.1,5.1,76,0.00,,,0.00,WUHU216HW,2013-05-29 04:21:00,
2013-05-28 23:26:00,75.2,67.6,29.68,ESE,113,4.7,6.7,77,0.00,,,0.00,WUHU216HW,2013-05-29 04:26:00,
2013-05-28 23:31:00,75.2,68.0,29.68,SE,135,5.4,6.7,78,0.00,,,0.00,WUHU216HW,2013-05-29 04:31:00,
2013-05-28 23:36:00,75.2,68.0,29.69,South,180,6.9,6.9,78,0.00,,,0.00,WUHU216HW,2013-05-29 04:36:00,
2013-05-28 23:41:00,75.1,67.8,29.69,South,180,6.7,7.6,78,0.00,,,0.00,WUHU216HW,2013-05-29 04:41:00,
2013-05-28 23:46:00,74.9,67.6,29.69,South,180,5.4,7.6,78,0.00,,,0.00,WUHU216HW,2013-05-29 04:46:00,
2013-05-28 23:51:00,74.9,67.6,29.69,SSW,203,3.1,5.4,78,0.00,,,0.00,WUHU216HW,2013-05-29 04:51:00,
2013-05-28 23:56:00,74.9,68.1,29.69,SSW,203,2.7,7.2,79,0.00,,,0.00,WUHU216HW,2013-05-29 04:56:00,